Weather History for LIRN - April, 2014

Change the Weather History Date:

Friday, April 25, 2014

  Actual Average Record
Temperature  
Mean Temperature 61 °F -  
Max Temperature 69 °F 72 °F 82 °F (2013)
Min Temperature 53 °F 53 °F 46 °F (1997)
Degree Days  
Heating Degree Days 4    
Growing Degree Days 11 (Base 50)    
Moisture  
Dew Point 56 °F    
Average Humidity 81    
Maximum Humidity 94    
Minimum Humidity 60    
Precipitation  
Precipitation 0.01 in 0.07 in - ()
Sea Level Pressure  
Sea Level Pressure 29.88 in    
Wind  
Wind Speed 3 mph ()    
Max Wind Speed 14 mph    
Max Gust Speed -    
Visibility 7.3 miles    
Events      
Averages and records for this station are not official NWS values.
T = Trace of Precipitation, MM = Missing Value Source: Averaged Metar Reports

Daily Weather History Graph

Daily Weather History Graph

Search for Another Location

Airport or City:

Trip Planner

Search our weather history database for the weather conditions in past years. The results will help you decide how hot, cold, wet, or windy it might be!

Date:

Astronomy

Apr. 25, 2014 Rise Set
Actual Time 6:09 AM CEST 7:52 PM CEST
Civil Twilight 5:40 AM CEST 8:22 PM CEST
Nautical Twilight 5:04 AM CEST 8:57 PM CEST
Astronomical Twilight 4:27 AM CEST 9:35 PM CEST
Moon 3:49 AM CEST (4/25) 3:54 PM CEST (4/25)
Length of Visible Light 14h 41m
Length of Day
13h 43m
Waning Crescent, 17% of the Moon is Illuminated
Apr 25
Waning Crescent
Apr 29
New
May 7
First Quarter
May 14
Full
May 21
Last Quarter

Hourly Weather History & Observations

Time (CEST) Temp. Dew Point Humidity Pressure Visibility Wind Dir Wind Speed Gust Speed Precip Events Conditions
12:20 AM 60.8 °F 57.2 °F 88% 29.89 in 6.2 mi East 2.3 mph - N/A   Scattered Clouds
12:50 AM 59.0 °F 57.2 °F 94% 29.89 in 6.2 mi Calm Calm - N/A   Scattered Clouds
1:20 AM 59.0 °F 57.2 °F 94% 29.89 in 6.2 mi WSW 1.2 mph - N/A   Partly Cloudy
1:50 AM 57.2 °F 55.4 °F 94% 29.89 in 6.2 mi Calm Calm - N/A   Partly Cloudy
2:00 AM 58 °F 56 °F 90% 29.90 in 7 mi NNW 1.2 mph - -   Partly Cloudy
2:20 AM 57.2 °F 53.6 °F 88% 29.89 in 6.2 mi Variable 1.2 mph - N/A   Partly Cloudy
2:50 AM 57.2 °F 55.4 °F 94% 29.89 in 6.2 mi Calm Calm - N/A   Partly Cloudy
3:20 AM 57.2 °F 53.6 °F 88% 29.89 in 6.2 mi NNE 2.3 mph - N/A   Partly Cloudy
3:50 AM 57.2 °F 53.6 °F 88% 29.89 in 6.2 mi Variable 1.2 mph - N/A   Partly Cloudy
4:20 AM 55.4 °F 51.8 °F 88% 29.89 in 6.2 mi North 1.2 mph - N/A   Partly Cloudy
4:50 AM 55.4 °F 51.8 °F 88% 29.89 in 6.2 mi NW 2.3 mph - N/A   Partly Cloudy
5:00 AM 55 °F 51 °F 84% 29.90 in 7 mi North 1.2 mph - -   Partly Cloudy
5:20 AM 57.2 °F 53.6 °F 88% 29.89 in 6.2 mi NE 3.5 mph - N/A   Partly Cloudy
5:50 AM 55.4 °F 53.6 °F 94% 29.89 in 5.0 mi North 1.2 mph - N/A   Partly Cloudy
6:20 AM 53.6 °F 51.8 °F 94% 29.89 in 5.0 mi NNW 1.2 mph - N/A   Unknown
6:50 AM 55.4 °F 53.6 °F 94% 29.89 in - NE 3.5 mph - N/A   Clear
7:20 AM 57.2 °F 53.6 °F 88% 29.89 in - Calm Calm - N/A   Clear
7:50 AM 60.8 °F 55.4 °F 82% 29.89 in - Calm Calm - N/A   Clear
8:00 AM 62 °F 54 °F 69% 29.91 in 12 mi South 1.2 mph - -  
8:20 AM 64.4 °F 55.4 °F 73% 29.89 in - Calm Calm - N/A   Clear
8:50 AM 64.4 °F 55.4 °F 73% 29.89 in 6.2 mi Calm Calm - N/A   Partly Cloudy
9:20 AM 66.2 °F 57.2 °F 73% 29.89 in 6.2 mi Variable 1.2 mph - N/A   Partly Cloudy
9:50 AM 66.2 °F 57.2 °F 73% 29.89 in 6.2 mi Variable 2.3 mph - N/A   Scattered Clouds
10:20 AM 66.2 °F 55.4 °F 68% 29.92 in 6.2 mi South 6.9 mph - N/A   Mostly Cloudy
10:50 AM 66.2 °F 55.4 °F 68% 29.89 in 6.2 mi SSW 5.8 mph - N/A   Scattered Clouds
11:00 AM 66 °F 56 °F 62% 29.91 in 16 mi SSW 5.8 mph - -   Mostly Cloudy
11:20 AM 68.0 °F 57.2 °F 68% 29.89 in 6.2 mi South 6.9 mph - N/A   Scattered Clouds
11:50 AM 66.2 °F 57.2 °F 73% 29.89 in 6.2 mi SSW 8.1 mph - N/A   Scattered Clouds
12:20 PM 68.0 °F 55.4 °F 64% 29.89 in 6.2 mi South 6.9 mph - N/A   Scattered Clouds
12:50 PM 68.0 °F 55.4 °F 64% 29.89 in 6.2 mi SSW 8.1 mph - N/A   Scattered Clouds
1:20 PM 68.0 °F 57.2 °F 68% 29.86 in 6.2 mi South 9.2 mph - N/A   Scattered Clouds
1:50 PM 68.0 °F 57.2 °F 68% 29.86 in 6.2 mi South 10.4 mph - N/A   Scattered Clouds
2:00 PM 68 °F 57 °F 60% 29.87 in 16 mi SSW 11.5 mph - -   Mostly Cloudy
2:20 PM 68.0 °F 57.2 °F 68% 29.86 in 6.2 mi South 10.4 mph - N/A   Scattered Clouds
2:50 PM 68.0 °F 57.2 °F 68% 29.86 in 6.2 mi SSW 11.5 mph - N/A   Partly Cloudy
3:20 PM 66.2 °F 57.2 °F 73% 29.86 in 6.2 mi South 13.8 mph - N/A   Partly Cloudy
3:50 PM 66.2 °F 57.2 °F 73% 29.86 in 6.2 mi South 12.7 mph - N/A   Partly Cloudy
4:20 PM 66.2 °F 57.2 °F 73% 29.86 in 6.2 mi South 11.5 mph - N/A   Partly Cloudy
4:50 PM 66.2 °F 59.0 °F 78% 29.86 in 6.2 mi South 11.5 mph - N/A   Partly Cloudy
5:00 PM 65 °F 58 °F 73% 29.86 in 16 mi SSW 10.4 mph - -  
5:20 PM 64.4 °F 59.0 °F 83% 29.86 in 6.2 mi South 10.4 mph - N/A   Partly Cloudy
5:50 PM 64.4 °F 59.0 °F 83% 29.86 in 6.2 mi SSW 9.2 mph - N/A   Partly Cloudy
6:20 PM 62.6 °F 59.0 °F 88% 29.86 in 6.2 mi SSW 9.2 mph - N/A   Partly Cloudy
6:50 PM 62.6 °F 59.0 °F 88% 29.86 in 6.2 mi SSW 8.1 mph - N/A   Partly Cloudy
7:20 PM 62.6 °F 59.0 °F 88% 29.86 in 6.2 mi South 6.9 mph - N/A   Scattered Clouds
7:50 PM 62.6 °F 59.0 °F 88% 29.86 in 6.2 mi SSW 5.8 mph - N/A   Scattered Clouds
8:00 PM 62 °F 58 °F 84% 29.87 in 16 mi South 5.8 mph - -  
8:20 PM 62.6 °F 59.0 °F 88% 29.86 in 6.2 mi South 3.5 mph - N/A   Partly Cloudy
8:50 PM 62.6 °F 59.0 °F 88% 29.86 in - South 3.5 mph - N/A   Clear
9:20 PM 60.8 °F 57.2 °F 88% 29.86 in - South 4.6 mph - N/A   Clear
9:50 PM 60.8 °F 57.2 °F 88% 29.86 in - South 4.6 mph - N/A   Clear
10:20 PM 60.8 °F 57.2 °F 88% 29.86 in - South 3.5 mph - N/A   Clear
10:50 PM 60.8 °F 57.2 °F 88% 29.86 in - Calm Calm - N/A   Clear
11:00 PM 61 °F 58 °F 85% 29.86 in 16 mi South 2.3 mph - -  
11:20 PM 60.8 °F 57.2 °F 88% 29.86 in 6.2 mi Variable 1.2 mph - N/A   Partly Cloudy
11:50 PM 60.8 °F 57.2 °F 88% 29.83 in 6.2 mi Calm Calm - N/A   Partly Cloudy